Theta_e
357 356 354 352 351 350 348 342 323 325 323 315 316 319 315 327 326 324 322 324 320 326 329 329 329 325 325 321 324 326 326 322 324 315 314 333 348 351 354 354 355 356 356 358 360 362 362 362 360 360 359 358 356 354 355 353 353 355 354 354 352 353 358 357 357 363 362 364 362 362 363 363 363 363 363 364 363 362 362 363 364 364 363 362 364 364 364 363 364 364 363 362 360 362 363 362 362
356 355 351 351 348 349 335 340 324 320 320 315 316 321 320 326 326 322 320 323 323 324 329 329 328 329 331 329 330 330 328 334 333 330 336 345 349 350 354 355 355 355 357 358 359 360 360 362 361 361 360 359 356 353 353 352 354 350 354 357 355 354 359 358 362 362 363 363 363 363 363 363 362 362 363 364 363 362 363 363 363 364 364 364 364 364 363 362 364 364 364 362 362 362 363 363 363
354 352 349 351 350 346 340 337 319 318 313 311 315 320 326 322 322 324 326 326 327 329 330 328 328 330 329 330 324 327 323 337 335 338 339 346 342 346 353 356 358 357 357 359 359 360 361 363 362 361 360 357 358 356 356 356 353 355 357 357 356 357 362 363 362 361 362 362 364 364 364 363 363 364 363 363 364 363 363 363 362 364 364 363 363 365 363 362 364 364 363 362 362 363 363 363 363
355 353 347 347 337 345 331 328 319 316 313 315 315 322 324 324 324 327 328 329 329 330 327 325 325 331 329 324 328 333 332 332 338 338 338 341 346 350 353 355 360 358 358 358 360 360 361 362 362 363 361 359 361 360 360 358 357 356 361 360 362 363 362 362 363 360 361 364 362 364 364 363 362 363 363 363 363 363 362 363 363 364 364 364 363 363 363 364 364 363 363 363 363 362 363 363 362
350 350 350 345 340 331 330 324 321 319 313 316 314 322 326 326 327 328 329 331 329 329 326 326 328 335 337 333 334 328 329 338 338 342 341 346 352 353 354 356 356 356 356 358 359 359 361 362 363 363 362 363 362 362 362 362 362 362 362 360 360 361 362 363 363 363 362 360 364 363 363 364 362 363 363 364 362 362 362 363 363 364 363 364 364 364 364 363 363 362 362 362 362 362 364 364 363
347 351 353 348 336 340 334 321 318 318 322 323 319 322 326 328 329 329 328 331 331 330 328 328 328 328 329 332 335 331 336 328 337 342 343 346 352 354 355 357 355 355 356 358 359 360 361 363 363 363 362 362 362 362 362 362 362 363 363 363 362 362 361 363 363 362 362 362 363 362 363 363 362 362 362 362 363 363 362 362 364 364 364 365 365 365 364 363 363 363 363 363 362 363 362 362 364
349 348 346 345 342 340 324 319 318 320 323 328 324 325 327 329 331 330 328 327 331 330 332 329 333 332 327 333 336 341 344 342 339 342 348 351 354 354 356 355 355 355 357 358 359 360 361 363 363 363 363 362 362 363 362 362 362 362 362 363 362 362 363 363 362 363 363 363 363 362 363 362 362 362 362 363 363 362 362 363 363 364 364 363 363 363 363 363 363 363 362 363 363 364 362 362 362
355 341 340 331 328 331 321 321 321 324 323 332 330 325 328 330 332 331 328 327 324 325 329 333 333 331 329 336 327 341 346 347 347 350 352 353 353 353 355 355 354 354 355 358 360 360 363 362 362 363 363 363 362 362 363 363 362 362 363 363 362 363 362 362 362 362 362 362 363 363 362 362 363 362 363 362 362 362 363 363 364 364 364 363 362 362 363 363 363 363 364 364 364 364 363 363 363
350 343 344 333 325 328 321 320 322 329 328 333 330 336 331 332 333 331 328 329 328 330 329 331 331 326 330 332 331 340 343 349 351 353 352 353 351 353 354 353 353 353 354 356 357 359 362 363 362 362 361 362 362 362 362 361 362 361 361 363 362 362 361 361 361 362 362 362 362 362 361 362 362 362 361 361 361 362 362 363 363 363 362 362 362 362 363 363 364 364 364 364 364 364 363 362 362
343 340 330 329 329 319 320 319 320 324 327 332 330 331 334 334 330 333 329 327 328 329 331 333 332 330 332 328 332 338 341 350 351 350 352 352 352 353 353 353 354 353 354 355 357 360 362 363 362 362 362 361 361 361 361 359 359 360 360 362 362 362 362 360 361 361 361 358 360 358 361 362 362 362 362 361 362 362 362 364 364 362 360 361 362 362 363 364 364 363 363 363 363 363 363 363 363
334 341 340 327 321 318 317 318 322 325 327 332 332 339 338 336 331 330 332 331 333 329 331 333 330 329 331 330 334 346 349 350 347 346 350 351 352 353 353 355 355 354 353 355 359 360 361 362 363 362 361 361 359 360 359 357 356 356 358 359 360 360 360 360 361 361 360 356 356 359 360 360 360 361 362 362 362 363 362 362 361 361 361 361 362 363 363 363 363 362 362 363 362 363 363 362 362
331 332 332 322 320 320 321 319 322 325 329 330 328 336 339 333 333 329 330 327 330 329 329 333 329 334 329 330 333 343 346 347 347 349 349 351 352 353 354 354 354 355 356 358 360 360 362 364 364 360 359 360 360 358 357 357 357 358 359 358 356 357 358 359 360 360 359 360 359 359 360 359 360 361 362 363 363 362 362 361 362 361 361 362 362 363 363 363 362 361 361 362 362 363 363 362 363
333 333 327 323 320 322 323 322 322 325 325 327 330 334 338 332 330 333 332 333 332 328 328 335 335 335 325 329 339 342 342 346 349 349 350 352 352 354 354 354 354 356 358 360 359 360 360 362 362 361 360 359 359 359 359 360 358 359 358 355 353 355 357 357 356 358 359 359 359 359 360 359 360 361 362 362 361 362 363 362 361 362 362 362 362 362 363 362 362 362 363 363 363 363 363 363 364
334 334 330 321 326 323 322 322 325 320 321 329 336 334 337 332 334 335 333 330 329 329 334 337 336 336 330 334 335 337 341 347 348 350 352 353 354 354 353 353 354 356 358 358 358 358 359 361 359 360 361 361 363 359 359 359 357 356 357 355 354 355 356 356 354 356 356 357 358 358 358 356 356 360 361 362 361 362 362 362 363 363 362 362 362 363 363 363 362 363 363 363 363 363 363 365 364
335 340 330 325 323 323 324 321 320 321 321 331 332 332 335 338 337 335 335 329 331 337 338 341 337 329 324 329 329 335 342 346 348 352 352 353 353 353 353 353 354 356 356 357 356 356 356 359 357 359 360 359 360 362 362 360 355 355 354 356 356 356 357 357 355 356 355 357 357 357 358 356 355 359 360 361 361 361 363 362 363 362 363 362 363 363 363 363 363 364 363 363 362 363 366 363 361
341 335 330 324 320 321 322 323 325 323 322 332 334 336 334 335 339 333 335 340 335 339 336 329 339 331 333 334 335 341 345 347 351 352 352 351 351 351 352 352 352 354 355 355 355 357 358 359 359 358 359 359 360 360 361 361 355 352 352 353 354 358 357 357 358 356 357 357 357 357 356 355 355 358 357 361 361 362 363 362 362 362 362 362 363 363 363 363 363 364 364 364 364 365 364 363 365
343 336 325 324 319 321 322 322 323 318 329 331 334 333 330 330 338 338 344 342 333 332 335 336 334 338 336 337 342 345 347 350 352 350 351 349 349 349 350 351 351 352 353 354 354 356 357 357 357 357 360 361 359 358 358 361 355 354 353 354 354 357 358 358 357 357 358 357 357 355 355 357 357 360 362 363 360 364 363 362 362 363 363 363 363 362 363 363 364 364 364 364 365 365 365 364 365
337 328 325 321 324 321 326 324 325 332 328 329 330 333 332 328 335 337 341 336 336 335 335 336 339 339 342 344 346 347 349 348 349 347 346 345 347 345 345 347 347 347 350 351 354 355 355 357 357 358 359 361 360 357 356 358 357 357 356 355 356 356 357 357 359 359 357 359 358 356 357 359 363 366 366 360 366 363 362 362 363 363 363 363 364 364 364 363 363 362 362 363 363 363 364 362 364
331 327 326 319 325 327 333 332 330 330 328 331 332 336 333 332 335 336 332 331 332 331 333 335 335 339 342 344 345 346 347 347 347 347 344 344 343 343 342 346 347 347 347 352 352 353 354 355 356 356 359 360 358 357 356 357 355 356 357 356 354 356 357 355 356 356 359 359 360 358 361 363 364 365 363 361 363 362 361 362 363 364 363 364 361 361 361 361 360 361 362 363 363 363 366 366 363
335 330 322 324 329 330 335 336 335 336 335 330 333 334 333 334 336 340 331 330 331 329 329 332 333 333 337 341 344 345 346 346 347 346 344 344 344 343 343 343 345 346 346 349 350 353 354 354 354 355 357 359 357 356 356 354 352 353 354 354 352 353 355 353 352 354 356 360 359 361 360 363 364 366 360 362 362 363 365 364 363 365 365 363 361 360 359 362 361 362 362 363 363 365 364 361 361
334 330 324 326 331 329 335 340 337 337 336 332 334 334 332 335 338 337 332 328 329 332 334 332 333 334 337 340 342 344 344 344 345 345 344 344 345 345 345 344 345 346 347 349 350 350 352 353 355 355 357 359 357 355 355 354 352 353 353 355 352 352 354 354 354 354 355 358 358 362 362 364 364 364 363 363 363 364 363 363 363 362 362 362 362 363 362 364 363 364 364 364 364 363 361 364 364
333 329 330 330 331 328 339 342 338 337 339 336 334 329 330 340 337 335 332 327 326 331 335 337 337 338 338 339 341 344 343 343 344 344 344 344 344 343 345 346 347 347 348 347 348 350 351 352 355 355 356 356 355 355 354 354 354 353 354 353 353 354 356 355 354 357 357 360 361 361 362 364 362 361 362 362 362 363 362 361 361 361 360 361 365 363 362 364 364 362 363 363 362 362 362 364 365
321 328 330 335 336 329 339 342 341 338 337 334 332 334 336 334 335 335 334 331 332 339 337 339 340 341 342 343 342 342 342 342 343 343 344 344 345 344 344 345 345 345 346 347 349 350 351 354 355 355 354 355 354 355 356 355 354 353 353 355 355 355 357 355 354 357 357 361 361 362 361 359 359 359 360 361 361 362 361 360 358 360 361 361 363 362 362 363 363 362 363 364 364 361 359 364 366
324 318 334 334 336 335 338 338 341 338 338 336 338 338 334 334 328 337 332 338 338 338 339 341 342 343 344 341 342 342 343 343 344 345 346 346 346 345 345 345 346 346 348 347 348 350 353 352 355 355 354 355 356 356 356 356 357 355 355 356 357 357 356 354 354 356 359 361 362 363 362 360 358 358 360 361 360 361 359 360 361 359 359 360 364 362 360 361 363 363 365 364 363 364 360 361 360
323 322 334 333 335 336 337 338 338 338 339 340 338 333 334 337 333 333 332 335 336 338 340 340 342 342 342 342 342 343 344 344 345 346 346 348 348 348 347 347 347 347 345 346 348 349 351 353 354 354 354 355 355 356 354 355 356 356 357 356 356 356 356 356 357 359 360 361 362 362 362 359 359 359 359 360 361 359 359 360 359 359 360 361 363 360 361 363 363 362 363 363 364 365 362 360 362
327 328 333 334 334 337 337 338 337 337 338 340 334 334 335 336 339 333 335 334 338 339 340 340 340 340 340 341 342 343 343 344 345 345 346 347 347 346 346 346 346 345 345 347 347 350 352 354 353 353 354 355 355 354 354 354 356 356 355 357 358 358 357 359 360 358 360 361 360 361 360 359 359 358 358 360 358 358 360 360 360 358 359 362 361 361 362 364 362 363 363 364 361 363 361 363 365
332 333 333 332 334 336 337 335 335 336 335 337 333 331 332 336 337 326 335 336 337 337 337 339 339 339 340 341 342 343 343 343 344 346 346 347 346 345 346 347 346 346 347 347 348 351 353 353 352 354 355 357 356 353 354 355 356 355 356 358 358 358 359 359 358 359 359 360 360 362 363 363 360 359 359 360 359 360 360 362 359 361 359 359 362 361 365 367 365 363 362 363 365 366 364 364 365
334 333 332 332 334 335 334 334 332 334 332 335 335 331 332 333 332 331 332 337 337 335 336 337 338 339 339 340 341 343 343 345 346 346 344 344 345 346 346 346 346 347 347 347 349 352 353 352 352 353 355 356 356 354 355 355 355 355 356 357 355 356 358 358 357 358 359 360 361 362 363 362 363 360 360 360 360 360 359 360 359 361 359 361 363 363 365 367 366 365 367 369 369 370 366 366 368
334 333 326 328 331 329 332 330 332 333 330 335 334 327 324 325 327 335 335 336 337 336 335 336 337 338 339 340 341 342 343 345 346 345 345 347 348 348 347 349 348 347 349 349 349 350 350 351 352 354 355 356 355 354 354 355 355 355 355 355 356 355 356 358 358 358 360 361 362 362 363 363 364 360 361 362 363 361 360 362 359 361 361 362 363 366 367 369 366 365 364 367 367 367 361 360 361
335 333 329 326 327 325 330 332 333 331 331 334 332 314 318 324 331 333 336 334 336 336 334 336 337 338 338 339 340 341 343 343 344 345 347 347 348 348 349 350 350 349 349 350 350 350 352 352 353 354 355 354 355 355 356 355 356 356 357 356 357 355 355 356 358 360 360 361 362 362 362 363 363 363 363 363 363 360 362 361 360 359 361 363 366 368 365 364 362 363 363 363 362 363 357 360 358
327 329 329 322 319 319 328 330 331 327 332 332 331 315 319 326 330 333 336 335 334 333 334 335 336 336 337 338 339 340 341 343 343 345 347 348 348 349 350 350 351 351 351 350 349 351 352 352 353 353 355 355 356 357 355 356 357 356 356 356 356 356 356 356 357 359 359 359 360 360 362 363 365 364 365 364 361 362 359 359 358 360 362 365 365 366 366 364 363 363 364 363 361 357 356 363 359
328 321 318 322 317 320 326 332 330 324 329 333 328 317 320 326 329 333 335 335 335 332 333 334 335 335 336 337 338 338 339 342 343 344 345 347 348 349 350 350 351 350 350 351 352 352 351 352 354 353 354 354 356 356 356 357 356 357 357 357 357 357 356 356 357 357 357 358 359 361 363 364 365 366 365 364 362 362 358 357 359 364 366 367 366 365 366 362 364 363 365 365 362 354 360 354 360
325 320 316 316 318 319 321 328 332 331 328 330 327 318 321 324 330 333 336 335 334 332 332 333 333 334 335 336 337 337 338 339 341 342 344 347 348 349 350 350 350 351 350 350 351 351 351 351 353 352 352 352 355 354 357 357 358 357 358 356 355 357 355 356 357 358 358 359 361 358 363 364 365 366 367 367 365 362 360 360 359 363 369 366 365 364 361 363 364 358 367 368 368 366 358 352 355
317 321 317 318 316 319 316 325 331 331 329 323 327 321 321 326 330 332 334 335 333 331 331 331 332 333 335 335 335 335 336 336 337 340 342 346 348 350 351 352 351 352 352 350 352 352 351 352 352 352 353 353 355 356 357 357 358 358 358 357 359 355 355 355 357 358 359 358 359 359 363 365 366 367 368 368 367 363 362 361 361 366 369 367 365 363 362 363 365 365 364 368 367 369 360 357 356
306 312 316 317 319 319 317 317 326 329 329 325 325 323 322 326 330 332 334 334 333 331 331 331 330 331 333 334 334 334 335 335 337 341 342 345 347 350 350 352 352 352 352 351 353 355 354 353 354 354 354 354 354 357 358 357 357 359 357 357 356 357 357 356 356 356 356 358 357 361 365 365 367 368 368 369 367 363 363 362 364 369 368 366 366 361 360 362 364 365 365 366 371 369 364 364 361
309 312 317 318 315 318 318 323 329 328 324 324 323 321 322 324 327 331 331 333 330 332 333 332 330 330 331 332 333 334 334 335 338 341 343 345 348 349 349 351 352 352 352 353 354 354 355 355 355 355 355 354 355 356 356 354 355 354 352 355 354 356 356 356 358 357 358 358 359 360 364 366 366 368 370 370 369 366 362 362 364 367 366 367 364 359 359 360 364 366 366 364 367 365 366 365 363
314 317 317 317 318 319 323 325 328 331 325 321 322 322 322 324 326 329 330 332 330 330 330 331 330 329 329 331 332 333 334 334 338 341 343 345 347 349 350 351 351 352 353 353 353 353 354 354 354 354 355 356 355 354 353 352 351 352 354 352 351 353 356 358 357 358 358 357 360 361 365 362 366 369 370 370 369 368 367 366 367 366 365 367 366 363 365 365 369 368 367 370 364 362 358 362 363
305 304 305 306 315 312 322 323 327 330 324 320 322 322 322 323 324 328 330 328 328 329 329 330 331 330 331 332 332 333 334 336 338 340 343 345 346 348 349 350 352 350 352 352 352 352 354 353 353 354 355 356 355 355 354 354 355 354 353 353 352 353 355 356 356 359 357 358 364 366 365 365 367 368 370 370 370 367 366 363 365 365 366 366 367 367 368 367 368 366 365 366 367 360 358 358 359
304 304 308 308 314 321 325 325 327 327 324 320 321 319 321 324 326 329 329 328 328 329 330 330 331 331 332 333 333 334 333 334 335 338 342 344 345 347 348 350 350 351 351 351 353 353 353 353 354 356 355 355 356 356 356 355 356 357 356 356 354 353 357 359 356 358 360 357 361 364 366 368 369 367 368 369 368 367 366 365 365 366 367 366 365 363 364 365 365 363 366 363 359 361 360 359 363
301 303 303 303 316 312 310 322 325 326 324 319 321 319 321 325 327 327 329 330 330 334 334 335 334 332 332 332 334 334 333 333 334 337 340 342 345 346 348 349 350 350 351 351 352 353 353 354 355 356 356 355 356 357 357 357 358 359 359 359 358 357 356 360 362 362 362 360 358 362 366 368 368 365 366 366 366 368 368 366 365 365 368 370 367 363 363 362 364 364 362 363 366 353 351 355 360
302 301 302 305 315 316 313 319 323 324 326 325 322 319 318 322 322 323 327 331 331 333 335 336 338 337 335 337 336 336 334 333 334 337 339 342 344 345 347 349 350 349 350 351 351 351 351 353 354 355 356 356 357 358 358 359 358 357 357 358 359 358 358 358 356 356 358 360 358 361 362 368 368 365 365 366 366 368 369 369 367 366 368 369 366 364 364 359 362 363 366 367 363 359 350 353 357
300 302 303 305 310 312 321 322 320 317 317 323 321 310 310 320 321 322 326 327 326 331 331 332 334 337 337 333 333 335 336 335 335 336 339 342 343 345 348 349 349 349 349 351 351 351 352 353 354 355 356 356 356 358 360 358 357 355 354 352 351 351 351 352 351 352 353 355 353 358 363 364 364 366 366 367 367 367 368 368 368 366 365 369 367 362 364 362 362 362 364 364 362 363 361 357 350
297 301 306 307 310 314 321 319 318 310 308 319 324 309 306 319 318 322 325 324 324 328 330 330 333 336 337 335 333 333 333 333 335 337 340 341 343 345 347 348 348 348 349 351 351 352 353 354 355 355 355 356 356 358 360 358 357 356 354 352 352 351 350 352 357 356 356 357 360 360 362 364 366 364 365 368 368 369 369 369 369 367 365 366 367 367 364 360 359 361 366 365 364 367 366 360 356
298 307 314 313 315 317 320 319 315 313 320 320 320 318 308 309 316 323 324 323 324 325 328 329 332 335 336 336 333 333 333 333 333 336 340 342 344 345 345 347 348 348 350 351 351 352 353 355 355 355 356 356 357 359 358 358 356 356 355 354 353 352 350 353 356 357 359 361 359 359 360 361 365 366 366 369 369 368 369 368 369 367 364 364 364 365 364 363 363 366 369 369 369 369 366 360 357
304 319 316 315 315 319 320 318 316 316 314 309 315 318 309 308 316 323 323 319 322 323 325 327 330 334 336 337 334 333 333 334 333 334 338 341 343 344 346 347 349 349 350 350 351 352 353 355 356 356 356 357 357 359 359 358 358 357 356 354 354 356 356 355 358 359 359 361 359 360 362 360 363 365 367 365 368 369 368 368 368 366 364 364 366 366 365 364 362 364 366 366 363 364 365 364 365
320 323 324 323 322 321 320 316 315 314 310 305 312 315 307 307 316 318 322 320 319 322 326 327 329 333 335 336 336 333 333 334 334 335 338 341 343 345 347 349 349 349 350 351 351 352 353 355 355 355 356 356 357 359 359 359 358 358 356 356 355 356 357 359 358 358 361 362 359 361 362 362 360 361 364 367 367 368 367 368 365 363 364 362 364 366 365 363 363 365 365 362 365 363 364 364 362
324 322 319 318 317 316 316 316 316 312 304 308 314 315 311 303 313 317 316 317 321 324 327 329 331 332 335 336 337 333 332 332 333 335 338 342 344 346 347 347 349 350 351 351 350 351 352 353 355 354 356 357 358 359 359 358 358 357 356 357 356 357 357 357 356 358 360 361 359 358 360 360 361 360 361 363 364 364 366 368 364 363 365 366 366 365 365 361 359 360 362 366 367 363 361 363 363
320 316 315 314 312 315 313 311 313 304 302 308 314 315 315 302 309 318 323 326 326 325 325 327 329 330 333 335 336 334 332 332 333 335 337 341 344 345 346 347 348 349 350 350 350 351 352 352 354 355 356 357 358 358 358 357 356 357 357 358 357 358 358 355 356 357 359 359 358 358 361 360 361 361 363 361 362 360 365 366 367 366 366 366 365 366 366 364 362 362 362 365 364 366 367 365 362
317 316 312 304 303 306 301 307 300 302 300 309 314 316 311 308 313 318 323 325 328 328 328 328 329 330 333 335 335 335 333 332 333 335 337 339 342 343 343 346 348 349 349 350 349 350 351 353 354 354 356 357 358 358 358 359 358 358 357 357 358 360 359 358 358 358 361 359 359 359 361 359 360 360 361 360 359 362 365 366 366 365 366 367 367 368 368 368 367 365 364 361 363 364 363 364 361
313 308 305 302 298 295 293 299 302 303 305 310 311 317 308 313 317 322 321 325 327 329 330 331 331 332 334 335 335 335 334 332 333 335 336 339 341 342 344 345 346 347 348 349 349 350 352 352 354 353 356 358 359 359 358 358 358 359 359 358 358 359 359 359 359 357 359 360 361 360 357 356 359 359 359 361 361 361 362 364 367 366 368 368 369 369 369 369 368 365 365 364 360 366 366 366 364
312 314 305 303 301 298 293 298 296 298 304 309 315 308 306 307 313 321 325 327 328 329 331 331 332 334 335 337 336 336 336 334 334 336 336 339 341 343 344 345 346 347 347 348 349 351 353 352 354 355 356 357 359 359 359 358 357 358 359 358 358 358 357 357 358 358 360 360 358 358 361 359 357 359 360 364 365 365 365 366 366 365 366 368 368 368 365 368 370 368 367 367 366 365 366 365 362
316 315 314 306 303 310 299 301 302 304 305 305 308 308 314 313 321 327 331 332 332 330 329 330 331 333 336 336 335 335 337 335 334 335 338 340 343 344 345 345 346 346 348 348 349 351 351 353 355 355 356 357 357 359 359 359 359 358 360 359 359 359 360 358 360 362 362 360 361 360 363 364 361 362 364 365 363 364 364 364 365 365 368 366 367 367 367 365 368 366 366 366 365 364 365 365 363
310 312 307 308 313 309 306 306 310 310 305 301 313 310 314 320 319 325 328 329 330 331 328 329 330 331 334 334 335 335 338 337 335 335 337 341 343 344 344 345 345 346 347 347 350 352 353 353 354 355 356 356 356 359 358 359 360 359 359 358 358 359 358 357 356 359 358 360 361 362 360 360 362 366 363 364 362 366 367 365 363 363 366 368 367 367 366 367 369 366 364 367 364 363 366 364 364
310 306 311 311 313 307 305 298 303 302 296 299 308 305 307 308 303 323 324 324 327 328 330 329 331 332 332 334 335 335 338 339 336 337 340 342 343 344 344 345 345 346 347 348 351 353 354 355 355 354 355 355 355 357 357 358 359 358 359 358 359 359 357 356 356 357 359 361 362 362 361 362 361 362 362 361 363 363 366 367 366 365 365 365 365 364 365 366 369 365 365 367 365 366 365 366 365
306 306 313 307 303 299 304 303 295 294 294 297 301 307 308 310 311 318 319 321 323 326 329 329 329 330 331 334 334 334 335 338 337 336 338 341 342 344 345 345 345 348 350 350 351 352 353 355 355 355 354 354 354 355 356 358 358 356 356 357 358 359 359 359 358 360 361 360 358 359 359 360 361 364 365 366 365 362 364 364 367 364 365 366 366 364 367 367 368 365 365 364 365 367 365 364 365
316 311 309 311 308 302 301 300 302 301 295 296 296 304 302 314 315 317 319 323 324 326 328 329 329 331 332 333 333 334 335 338 337 335 338 340 342 344 345 345 345 346 349 349 350 352 351 353 354 355 355 355 357 355 357 357 357 356 356 358 360 361 362 360 361 361 358 358 359 358 359 358 360 362 362 364 363 362 362 361 360 360 359 360 362 361 362 364 367 365 363 362 364 366 364 364 361
310 310 309 311 309 308 305 302 300 299 298 296 295 295 306 315 320 320 321 324 326 327 328 331 331 331 332 332 332 333 335 338 338 335 336 339 342 344 345 347 346 347 349 350 349 350 351 351 351 353 353 353 354 355 356 358 357 357 358 358 357 360 359 360 359 359 359 359 360 361 359 359 362 361 362 361 362 362 363 362 360 362 360 362 365 364 364 366 367 367 366 366 366 366 364 363 364
310 310 308 310 305 301 298 298 302 302 299 295 296 294 307 318 323 322 323 326 328 329 330 331 331 331 332 332 334 333 334 336 339 337 334 337 341 343 346 348 348 347 348 349 350 351 352 352 351 351 352 353 353 354 356 357 358 358 357 356 356 358 359 360 359 359 359 359 359 360 362 362 360 362 363 361 362 361 362 362 361 361 363 361 364 367 363 363 365 365 365 361 362 365 365 364 364
Wind_Speed
8 6 6 5 3 1 3 2 2 2 2 4 3 0 4 1 4 5 7 10 8 5 5 7 11 8 4 2 1 1 2 10 1 6 2 3 4 10 7 9 11 11 11 10 9 9 10 10 13 15 13 13 9 6 9 7 8 4 5 6 7 6 10 12 11 10 11 14 14 15 14 14 14 15 15 14 14 15 14 15 15 15 14 14 13 14 15 14 14 13 13 13 11 8 10 10 10
6 6 5 4 2 1 1 0 1 2 3 5 4 1 4 2 3 7 11 9 6 10 7 11 11 5 2 3 4 6 7 7 4 3 2 4 10 8 7 10 10 11 10 10 9 9 9 10 10 12 13 15 13 13 10 9 9 4 6 7 10 14 12 12 12 12 11 14 14 14 14 14 14 14 14 14 14 14 14 14 15 13 12 12 12 13 14 14 14 13 12 11 9 9 10 9 9
6 6 4 2 2 2 1 1 1 1 6 5 3 2 1 4 4 5 7 4 8 12 10 12 9 4 4 5 6 4 4 3 3 4 5 9 12 7 9 10 9 11 11 9 9 9 7 8 9 11 13 14 16 19 18 18 15 15 13 12 12 9 11 11 12 10 12 13 13 14 14 14 13 14 14 14 14 13 13 13 14 13 11 11 12 12 13 14 14 12 11 11 8 10 10 10 9
6 3 3 3 1 1 1 1 2 1 5 4 5 2 2 2 3 5 3 3 10 12 13 13 8 1 2 3 3 2 5 3 2 7 8 9 3 10 10 11 11 10 9 8 8 8 6 8 7 9 11 16 15 15 16 18 17 14 14 13 9 9 10 11 11 12 11 13 13 13 14 13 13 13 13 14 14 13 12 13 12 12 12 11 11 12 14 13 12 11 10 10 10 12 11 11 11
5 3 1 1 2 1 1 1 2 1 5 3 6 4 1 3 7 7 4 6 10 11 13 11 4 4 4 5 2 2 3 5 5 3 5 5 7 10 12 12 10 10 10 9 8 7 7 8 8 8 9 10 10 11 12 13 13 10 11 10 10 8 9 13 10 10 13 10 11 12 13 13 12 12 13 13 14 13 12 12 12 11 12 11 10 12 12 12 12 11 11 10 10 11 11 12 11
2 2 1 1 1 1 1 2 2 2 3 2 5 3 3 6 9 9 9 8 9 9 9 10 2 6 3 5 4 3 2 2 6 2 6 5 10 11 12 11 10 9 9 8 7 6 7 8 8 8 8 9 9 9 9 9 10 11 10 9 10 11 9 11 12 11 13 11 11 12 12 12 12 12 12 13 14 14 12 12 11 11 11 11 11 11 12 11 11 11 11 11 12 11 11 11 12
1 1 1 1 1 1 0 4 4 1 4 2 2 4 5 7 9 13 11 11 5 8 5 6 8 9 6 3 5 7 3 2 5 5 3 9 10 10 11 9 10 9 8 6 6 6 7 8 7 7 8 8 9 9 9 8 8 9 10 11 10 10 11 10 9 11 12 12 12 12 12 12 11 11 11 12 12 13 12 12 11 10 10 10 11 11 11 11 10 10 10 10 10 9 10 10 10
1 3 2 2 1 1 3 4 4 2 3 2 3 4 5 8 7 11 12 10 9 9 7 7 5 4 5 1 2 5 5 3 7 9 8 10 10 10 9 9 9 9 7 6 5 6 7 6 6 7 8 8 9 9 9 8 8 9 10 10 10 9 11 11 10 9 11 12 12 12 12 11 11 11 11 11 12 12 12 11 11 10 9 10 11 11 10 10 10 10 9 10 10 10 9 9 10
1 2 1 1 1 2 5 4 3 1 3 1 4 4 6 4 3 10 10 4 9 5 10 8 4 4 4 8 6 4 6 8 11 10 11 10 10 9 6 8 9 8 8 6 6 5 6 7 7 7 7 8 9 9 9 10 10 7 9 10 9 10 10 8 9 10 10 10 11 10 11 11 11 11 11 11 11 11 13 12 11 10 10 11 11 10 10 10 10 9 9 9 10 10 9 8 9
1 2 1 1 1 6 6 3 2 2 3 3 5 5 4 4 5 2 9 10 8 10 5 3 3 6 8 9 7 4 5 9 13 12 10 10 9 8 7 7 7 9 8 6 6 5 5 8 8 7 7 6 7 8 11 9 8 8 7 9 10 10 10 8 7 10 11 12 8 8 6 10 11 11 11 11 11 11 12 11 11 11 11 10 10 10 10 9 9 9 9 10 10 10 9 9 8
2 0 1 2 4 6 6 5 3 1 2 2 5 3 2 2 5 6 3 7 5 7 8 8 8 11 7 6 5 3 7 10 13 12 11 10 9 8 7 6 7 7 7 7 6 5 6 7 8 7 7 6 9 10 9 9 7 5 4 8 9 9 9 9 9 10 11 11 8 7 8 8 9 11 11 11 11 12 12 11 11 11 10 10 10 10 9 9 8 8 9 10 10 10 9 8 8
1 2 1 2 3 3 5 7 4 3 2 3 4 2 1 4 6 7 8 10 6 8 6 2 7 10 9 7 5 7 8 9 11 11 11 10 8 8 7 6 6 6 7 7 6 5 5 5 5 6 6 8 8 8 6 8 8 7 8 11 7 8 8 9 8 10 10 9 9 6 8 8 8 10 11 11 11 10 11 11 10 9 10 9 10 9 9 8 8 8 9 9 9 9 8 8 9
2 1 1 3 4 2 5 7 5 3 4 2 2 2 1 6 4 6 6 7 6 8 5 1 12 2 6 6 6 8 9 10 10 11 11 8 8 7 7 7 7 7 6 6 6 5 6 5 5 5 6 8 7 7 7 8 9 9 8 12 8 7 8 9 7 9 10 10 8 7 7 8 4 8 10 11 11 10 9 9 10 10 10 9 9 9 9 8 8 8 9 9 9 9 8 8 9
2 2 1 3 1 3 4 4 2 5 3 1 1 3 1 2 3 5 8 9 6 3 4 9 6 9 10 9 7 7 8 11 12 11 9 9 8 7 8 7 7 6 6 6 6 5 5 5 4 5 6 5 5 6 7 8 9 8 8 10 8 6 6 8 6 7 8 10 11 8 9 9 1 4 8 10 11 10 10 10 9 9 9 9 8 9 8 8 8 8 8 8 8 8 8 8 8
3 0 1 3 4 3 0 3 2 3 4 1 3 4 4 4 3 5 3 9 5 4 8 5 5 5 5 9 9 9 11 13 12 11 11 10 9 8 7 6 6 6 5 5 5 5 5 4 4 4 4 4 4 4 3 5 8 10 7 9 10 9 7 8 8 7 9 9 10 8 10 9 3 2 4 8 9 10 10 9 9 9 9 9 8 8 8 8 8 8 8 8 7 7 7 7 6
2 2 1 2 3 4 4 2 1 3 4 3 2 5 9 5 2 6 3 3 7 6 5 5 1 2 7 4 10 13 15 14 12 12 11 12 10 8 7 6 6 5 4 4 4 4 4 4 4 4 4 4 3 4 5 5 8 10 8 8 9 9 9 8 9 8 9 8 10 11 11 7 4 2 1 5 8 9 9 8 9 9 9 8 8 7 7 8 8 7 7 7 7 7 6 5 5
1 3 0 1 4 4 5 4 6 3 4 3 3 6 6 6 1 4 1 6 11 6 5 4 2 1 10 6 14 16 15 14 13 13 12 9 8 7 6 5 4 4 4 3 3 3 4 4 4 4 5 5 5 5 4 5 8 11 9 9 9 8 9 9 9 9 9 9 9 10 10 7 5 5 4 3 6 7 8 8 8 9 8 8 7 7 7 7 7 6 6 6 6 6 6 3 3
2 1 1 3 2 3 1 4 4 2 5 5 6 1 9 9 5 6 8 8 8 8 8 9 9 8 10 14 15 15 15 14 13 13 10 9 7 7 6 5 5 4 3 3 2 3 3 4 4 4 4 5 5 4 4 4 6 8 9 7 5 6 8 8 8 6 8 6 10 8 4 5 3 2 2 3 3 6 7 8 8 8 8 7 7 6 6 6 6 6 6 6 6 5 4 3 4
1 1 1 4 2 2 1 1 3 3 2 5 4 2 3 7 10 7 6 8 9 10 8 11 12 12 14 15 16 15 14 13 12 10 12 10 8 8 7 6 5 5 4 3 2 2 3 3 4 4 4 4 5 5 4 5 6 6 6 7 6 7 7 6 6 5 5 6 7 5 4 4 4 2 3 2 4 7 7 8 8 8 7 6 5 5 5 5 5 5 5 5 5 3 3 3 3
1 3 3 4 1 2 3 2 4 1 8 7 6 3 4 6 4 5 6 10 8 9 10 10 12 14 15 16 15 15 13 12 11 10 10 10 9 8 8 7 6 5 5 4 4 3 3 3 4 3 5 5 4 5 4 5 5 5 5 5 5 3 6 5 5 5 5 5 7 5 5 5 4 3 5 4 4 5 6 8 9 8 6 5 4 2 3 5 4 3 3 4 3 3 4 4 4
2 2 1 3 3 2 3 3 2 1 10 8 5 4 7 4 4 6 11 9 5 5 7 13 15 17 17 16 16 14 13 13 11 10 10 10 9 7 6 6 5 5 4 3 3 4 4 4 4 5 5 5 5 5 5 5 6 6 4 5 5 4 6 5 5 5 6 6 6 5 6 5 4 3 4 4 4 4 4 3 3 3 2 3 3 3 3 4 4 5 4 4 4 4 4 4 4
1 1 2 2 3 3 3 5 2 2 4 8 5 8 7 5 5 7 13 8 6 9 9 10 16 19 20 19 17 14 14 13 12 11 10 10 10 8 7 6 5 4 4 4 5 5 5 4 4 5 5 6 5 5 5 6 7 6 6 5 6 5 6 6 5 6 6 7 6 6 6 5 5 4 4 4 4 3 3 3 3 2 2 2 3 3 4 4 4 4 5 5 5 4 4 4 4
3 2 1 2 2 5 5 5 2 4 6 7 7 2 6 5 5 7 7 2 3 5 9 12 14 15 16 16 17 15 14 13 12 12 11 10 10 8 7 6 6 5 5 4 5 5 5 5 4 5 6 5 6 5 6 6 6 6 6 6 6 6 6 6 6 6 6 6 5 6 5 5 5 4 4 4 4 3 2 2 2 2 2 3 3 3 4 4 4 4 4 4 4 4 5 4 2
5 2 1 3 3 2 4 4 2 3 7 5 2 5 6 5 7 2 4 1 2 9 10 13 14 14 16 17 15 15 14 13 12 11 10 9 9 9 7 6 6 5 5 5 5 5 5 5 5 5 5 6 6 6 6 6 5 6 7 7 5 6 6 6 5 5 6 5 5 5 4 5 5 4 4 4 3 2 2 2 2 2 2 3 2 3 4 4 4 4 4 4 4 4 5 5 5
5 4 1 1 2 3 3 3 3 2 4 4 6 7 4 1 3 4 5 3 7 10 12 14 14 15 14 14 14 13 12 11 10 9 8 6 7 7 6 5 6 6 6 6 5 5 5 5 5 4 5 5 6 6 6 5 5 5 6 6 6 6 6 6 6 5 5 5 5 5 4 5 4 4 4 3 2 2 2 2 2 2 3 3 3 3 4 4 4 4 4 4 4 4 5 5 5
6 2 3 2 1 2 3 3 3 3 2 1 7 4 3 3 2 5 4 4 9 12 13 15 15 15 14 13 13 12 11 11 10 9 8 7 7 8 8 6 6 6 6 6 6 5 5 5 5 5 5 6 6 6 5 6 6 5 6 6 6 6 5 5 6 5 5 5 5 5 4 4 3 3 3 2 2 2 1 2 2 2 3 3 4 4 4 4 4 4 4 4 5 5 5 5 4
5 6 3 2 1 2 3 3 2 3 1 0 5 6 4 2 2 5 1 7 12 13 14 15 16 15 14 12 11 11 11 11 11 8 7 7 8 8 8 8 7 7 6 7 6 5 5 5 5 5 5 6 5 6 6 6 6 6 6 6 6 5 5 6 5 5 5 5 5 5 5 4 3 3 3 2 2 2 2 2 2 2 3 3 4 4 3 4 4 4 4 4 4 4 4 4 3
7 9 6 4 4 4 3 3 2 2 3 2 3 4 3 4 2 1 4 8 13 15 15 15 14 14 12 12 11 9 9 8 7 8 10 10 8 8 9 8 8 8 7 7 6 6 6 6 6 6 5 5 5 6 6 6 6 6 7 6 7 6 6 5 5 5 5 5 5 5 4 3 2 2 2 2 1 1 1 1 2 2 3 3 4 4 4 4 3 3 3 3 3 3 3 3 3
9 7 3 3 2 0 3 2 0 3 3 4 3 8 1 3 5 3 1 9 13 14 15 15 14 13 13 12 10 9 8 8 8 8 9 8 7 7 9 8 9 8 6 7 8 8 7 6 6 6 6 6 6 6 6 6 6 6 6 6 6 6 6 5 5 5 5 5 5 5 4 3 2 2 1 1 1 1 1 1 2 2 3 3 3 4 4 3 3 3 4 3 3 3 4 5 4
5 3 2 3 3 2 5 1 1 4 1 5 4 6 7 7 1 1 1 11 11 12 13 13 12 12 11 11 10 9 8 8 9 9 8 7 7 7 8 9 9 8 7 7 9 9 6 6 5 5 6 7 6 6 5 5 6 5 5 5 6 6 5 5 5 4 4 4 5 4 4 2 2 1 1 1 0 1 1 1 2 2 3 3 3 3 3 4 4 4 5 4 4 4 5 5 4
3 2 2 2 3 1 3 2 1 3 1 4 1 5 4 5 2 2 1 11 14 13 13 13 12 12 11 11 10 9 9 9 10 10 8 7 6 6 8 9 9 8 7 8 10 9 8 7 6 5 7 7 6 6 6 6 6 5 5 5 6 5 5 5 5 5 4 4 4 4 2 2 2 2 1 0 0 1 0 1 2 3 3 3 2 3 3 3 4 4 4 5 5 4 5 4 4
1 3 2 0 3 2 4 0 1 3 2 4 2 2 2 7 4 3 2 9 13 13 13 13 12 11 12 11 10 10 9 10 9 8 7 7 7 6 8 9 9 9 9 8 9 9 9 8 7 6 8 7 7 6 6 6 6 5 5 5 6 6 5 5 5 5 5 4 4 3 3 2 2 2 1 1 1 1 1 1 2 3 3 2 3 3 3 4 4 4 4 4 4 5 5 5 3
1 3 2 2 2 2 2 2 1 2 4 7 2 1 2 3 4 3 1 8 12 12 13 13 13 13 12 11 10 9 9 9 8 8 8 7 7 7 8 9 9 9 9 9 9 10 9 9 8 8 9 8 6 7 6 6 6 6 6 6 6 6 5 5 4 4 4 4 3 3 3 2 2 1 2 1 2 1 1 1 1 3 2 3 3 3 3 3 4 4 3 3 3 3 5 6 4
2 1 2 2 3 3 1 2 3 1 4 7 7 2 2 2 3 2 2 5 12 12 13 12 12 11 12 10 10 10 9 9 9 10 10 9 7 8 8 8 10 10 9 9 10 9 9 9 8 7 8 8 6 6 6 6 6 6 5 5 5 5 5 4 4 4 4 4 4 3 3 2 2 2 1 1 1 1 1 2 2 3 2 2 2 3 2 3 3 3 4 3 3 3 3 5 5
4 3 3 1 1 1 3 3 3 4 4 4 6 7 4 2 4 2 1 5 12 12 12 12 12 11 11 10 10 11 10 10 11 10 10 10 9 9 8 9 9 10 8 10 9 8 8 8 7 8 8 8 8 7 6 6 6 6 5 5 6 5 4 4 4 4 4 4 4 3 3 3 2 2 1 1 1 1 1 1 1 2 1 2 2 2 2 3 3 3 4 3 2 2 2 3 4
6 5 3 1 3 1 2 1 2 5 5 3 4 4 2 2 6 2 1 2 10 9 9 9 9 9 9 10 10 10 10 12 9 9 10 9 9 9 8 9 9 9 9 9 9 8 8 8 7 8 8 8 8 8 7 6 6 6 6 5 5 5 4 4 4 4 3 3 3 3 3 2 2 1 1 1 1 1 1 0 1 1 1 2 2 2 3 3 4 4 4 4 4 1 0 2 2
4 2 3 3 2 0 2 3 2 3 4 3 6 6 2 4 4 1 1 1 5 7 9 10 10 10 10 10 11 10 11 12 8 9 10 10 10 9 8 9 9 9 10 10 10 9 9 8 8 8 8 8 8 8 8 8 8 7 6 6 6 6 5 4 4 4 4 4 3 3 3 2 2 1 1 1 1 1 1 0 0 0 1 2 2 3 3 4 3 3 3 2 3 3 2 3 2
6 7 7 4 1 3 2 2 3 1 4 2 5 6 4 4 3 3 1 1 5 6 8 10 12 11 10 11 12 12 11 7 7 7 9 10 9 10 9 8 10 11 10 11 11 10 9 9 9 8 7 7 7 8 8 8 7 7 6 6 6 6 5 4 4 4 4 4 3 3 3 2 2 2 1 1 1 1 1 1 1 0 0 1 2 2 2 3 3 3 4 1 0 2 2 4 4
2 5 4 4 1 1 1 2 5 1 3 2 3 5 5 5 7 4 6 8 6 10 6 7 10 11 10 11 11 11 9 8 8 10 11 11 12 11 9 8 9 10 10 11 11 10 10 9 8 8 8 8 7 7 7 7 8 6 5 4 4 5 3 3 3 3 3 4 4 3 2 2 2 2 2 2 2 2 1 1 1 1 0 1 1 2 2 3 3 4 4 4 2 1 1 2 4
4 3 6 5 3 3 1 4 4 1 1 0 4 5 3 5 4 4 4 7 5 6 7 6 8 11 12 13 12 11 11 9 10 11 12 11 12 11 9 9 9 9 10 10 11 11 9 8 8 8 8 8 7 7 7 7 6 5 2 3 3 3 3 2 2 2 3 3 4 3 3 3 3 2 2 2 2 1 2 2 1 1 1 0 1 2 2 3 3 3 4 4 3 2 2 3 3
3 6 6 4 4 4 4 2 3 1 3 2 2 3 5 7 8 7 4 4 3 5 4 7 8 8 9 7 9 10 12 11 11 12 12 12 12 12 12 11 10 10 11 11 11 11 8 11 9 9 8 8 7 7 8 6 6 5 3 2 3 3 2 3 3 4 4 4 4 4 4 4 3 3 3 2 2 2 2 2 1 1 0 0 1 1 2 2 3 3 3 3 4 4 3 2 2
5 8 9 6 6 5 5 7 6 3 3 4 2 2 4 7 12 10 4 3 8 7 6 9 10 10 8 10 12 11 11 11 12 13 13 14 14 13 11 11 11 10 11 11 11 11 10 10 10 9 7 7 8 9 8 7 6 6 5 5 5 5 4 5 6 6 5 5 5 4 4 5 4 4 3 3 2 2 2 2 2 1 1 0 1 2 2 2 1 2 3 4 4 4 3 2 1
5 4 4 9 9 7 9 8 5 3 4 3 5 4 4 2 8 11 7 7 10 8 9 10 9 10 11 10 10 11 12 11 12 12 12 13 13 13 13 13 13 12 11 10 11 11 11 10 10 10 8 7 8 8 9 7 7 6 7 7 6 5 5 4 3 4 4 4 3 4 4 4 4 5 4 4 3 2 2 2 2 2 1 1 1 1 1 2 2 2 2 3 3 3 4 3 3
6 3 1 6 6 7 8 8 5 2 3 3 2 4 6 7 6 11 10 10 10 8 11 13 10 11 12 11 11 12 12 13 12 13 13 14 14 14 15 15 13 13 12 11 11 11 12 10 10 10 8 8 8 8 9 8 7 7 7 7 6 6 6 4 5 4 4 4 4 5 4 4 5 5 4 3 3 3 2 2 2 2 2 1 1 1 2 2 2 1 1 2 2 2 3 3 3
1 2 5 7 7 6 6 3 2 0 3 5 3 2 3 6 2 5 12 11 13 14 14 15 15 13 13 12 12 13 14 14 14 13 14 15 15 15 14 14 14 13 12 12 12 11 11 10 10 10 9 8 8 9 9 9 7 7 6 6 5 5 5 5 5 5 4 4 5 4 4 4 4 5 4 4 4 3 3 2 2 2 2 2 1 1 1 1 1 1 1 1 2 2 2 2 3
4 13 13 11 11 7 4 3 3 2 3 7 6 8 5 9 5 5 8 13 15 16 17 17 16 14 12 12 13 14 13 12 14 15 16 16 16 16 16 14 13 13 13 12 11 10 10 10 10 11 10 8 8 10 9 10 9 7 7 6 7 5 4 3 3 4 4 4 5 5 4 4 4 5 5 5 4 4 4 3 3 2 2 1 2 1 1 1 1 1 1 2 2 3 2 2 2
13 14 14 10 9 6 3 3 1 2 6 6 8 13 7 6 4 9 10 13 17 16 11 12 13 12 11 11 13 12 12 12 12 14 15 16 16 16 14 14 14 12 10 11 12 11 11 11 11 12 11 8 9 10 10 10 9 9 8 8 8 7 6 5 4 4 4 4 5 5 5 5 4 4 4 4 5 5 4 3 4 3 2 2 2 2 1 2 1 1 1 1 2 2 1 2 2
9 4 9 9 7 4 2 2 0 4 3 2 6 11 10 7 4 7 13 8 11 12 14 18 18 17 14 12 11 12 13 12 13 13 14 14 12 12 12 13 12 12 11 12 12 11 11 11 11 12 11 10 9 10 10 10 9 9 9 9 9 8 7 6 6 6 6 6 6 6 5 4 4 4 4 4 4 5 4 4 4 3 3 3 3 2 2 1 1 1 1 1 1 1 1 1 3
5 7 7 5 2 2 1 2 5 7 4 3 3 6 5 13 14 6 3 11 9 9 11 15 19 20 16 13 13 11 12 13 13 13 12 13 13 13 14 13 11 11 11 13 13 13 12 11 12 12 11 11 10 10 11 11 10 9 9 9 9 7 8 7 7 7 6 6 6 6 5 5 5 5 5 5 5 6 4 4 4 4 3 3 3 2 2 2 1 2 1 2 1 2 1 2 2
8 9 7 6 4 2 2 3 3 4 2 1 3 6 7 7 8 9 13 10 12 12 11 12 16 19 18 14 12 11 12 14 14 13 13 13 13 14 14 14 14 13 14 14 13 12 11 11 12 13 12 11 10 10 11 11 11 10 9 9 8 7 8 8 7 7 7 6 6 6 6 6 5 6 5 5 5 5 5 5 4 5 4 4 3 3 3 2 2 2 2 2 2 1 1 2 3
7 3 5 3 7 6 4 4 6 3 2 2 6 5 3 2 3 6 6 7 7 9 13 13 14 16 17 16 13 13 14 13 12 13 13 14 14 15 14 14 14 14 15 15 13 12 11 11 12 13 12 12 12 11 10 11 10 10 9 9 8 7 8 7 7 7 6 7 7 7 6 6 6 5 5 5 5 5 6 5 5 5 5 4 4 3 3 3 2 2 2 2 2 1 2 2 2
4 2 1 3 4 4 4 3 5 2 4 4 5 4 1 3 4 4 7 9 7 5 8 12 13 13 13 13 14 13 13 13 13 13 13 14 15 14 13 13 14 14 15 14 15 13 13 12 12 13 13 12 12 12 11 11 10 10 10 10 9 9 7 7 6 6 6 7 7 7 6 6 6 5 5 5 6 6 6 6 6 6 5 5 5 4 4 4 3 3 3 3 3 2 2 3 3
5 4 7 3 3 4 3 4 2 1 2 3 3 5 4 5 4 4 11 12 13 12 2 9 12 14 15 15 14 15 14 13 12 13 13 14 13 13 13 14 14 14 14 14 14 14 15 14 13 14 13 12 12 12 12 11 10 10 10 11 10 9 9 10 9 9 9 8 7 7 7 7 6 5 5 5 6 5 6 6 6 6 5 5 5 5 5 4 3 4 4 4 4 3 2 3 4
5 6 4 5 2 2 3 2 2 3 5 2 3 7 5 5 2 8 17 18 15 15 11 6 9 12 13 12 12 12 10 9 10 11 12 14 14 15 14 14 15 16 16 16 15 14 14 13 14 15 14 14 14 13 13 12 12 11 10 11 10 10 10 10 9 9 8 7 7 6 7 6 7 7 6 5 5 6 6 6 6 6 6 5 5 5 5 4 4 4 4 4 4 3 4 3 4
3 2 1 6 2 5 1 3 6 5 5 3 3 3 4 4 6 13 16 17 17 16 13 5 7 10 11 6 5 8 11 11 11 12 11 12 12 14 14 15 16 15 15 15 15 14 13 12 13 14 16 16 15 13 12 11 12 10 10 11 12 10 10 9 9 8 7 8 9 8 8 8 7 6 5 5 6 6 6 6 6 6 6 6 6 6 5 5 5 5 5 5 4 4 4 5 4
4 3 1 4 4 2 3 2 1 2 5 1 1 4 2 4 6 9 11 13 13 15 12 7 7 10 11 9 10 9 11 10 10 9 9 12 14 15 15 15 15 15 14 13 14 12 14 14 13 13 13 12 13 14 13 12 12 11 11 10 10 9 9 9 8 8 8 9 9 9 9 8 8 6 7 7 7 7 6 7 7 7 7 7 6 6 6 6 5 5 6 5 4 4 5 5 5
5 3 4 1 2 1 2 1 1 1 2 2 2 3 3 4 6 8 10 11 12 12 12 8 5 9 10 10 8 10 9 7 6 7 8 9 11 13 14 14 14 14 12 12 13 14 14 14 14 15 15 14 15 15 13 12 11 12 12 12 12 10 11 9 10 10 10 9 9 8 8 8 6 7 7 7 7 7 7 6 7 7 7 6 6 6 5 5 5 5 5 6 6 5 5 5 5
6 4 5 3 3 2 5 3 3 0 2 1 2 4 3 5 5 8 9 9 9 10 10 8 2 7 9 9 10 8 7 8 8 8 9 8 9 10 10 10 10 11 12 13 13 12 13 14 14 15 14 14 14 14 13 12 11 10 13 13 13 11 10 9 10 10 10 9 9 8 8 7 8 7 7 8 8 7 7 7 7 7 7 7 7 6 7 6 6 6 7 6 6 6 6 6 6
Wind_Direction
158 151 144 156 160 201 207 166 216 113 226 80 115 176 91 259 121 127 110 132 142 168 180 117 144 151 183 207 186 6 340 176 159 175 103 66 137 133 121 128 132 133 134 139 138 141 148 155 150 151 148 109 119 100 86 62 55 66 115 118 127 148 166 158 151 125 122 112 109 106 107 107 106 104 102 102 101 111 108 102 101 101 101 102 101 97 93 92 88 83 80 82 80 77 86 82 77
151 150 149 155 169 210 199 239 257 154 95 126 78 231 115 144 195 156 155 161 144 163 163 146 159 153 278 222 121 130 74 21 337 9 80 120 133 127 125 137 137 131 133 137 140 141 146 140 145 143 133 124 129 122 127 138 124 153 155 171 168 175 163 130 120 123 125 115 113 112 107 106 106 104 104 102 100 100 103 104 102 98 98 100 103 105 102 96 90 85 83 80 83 86 77 73 71
154 156 143 165 168 238 123 163 232 159 140 117 128 112 118 179 172 158 140 120 129 141 146 146 149 155 114 139 150 306 110 47 90 109 108 145 135 144 142 142 134 130 134 137 141 144 144 137 138 139 134 137 147 150 159 150 161 178 169 163 161 166 125 117 118 123 120 117 116 112 109 106 105 105 104 101 100 99 101 102 103 102 102 103 99 98 96 91 89 88 86 83 80 77 75 74 71
156 164 156 182 189 166 263 93 47 189 132 102 130 142 198 145 86 118 130 84 128 140 144 146 165 0 247 138 57 112 77 99 84 131 133 163 131 142 144 144 136 135 137 142 142 143 140 133 137 140 153 143 150 154 151 154 162 165 156 153 151 127 113 109 106 112 119 115 112 112 111 108 107 107 107 107 103 100 102 104 105 108 105 99 101 100 98 96 97 95 95 99 92 75 72 68 68
171 166 222 289 280 110 354 51 133 282 131 169 128 137 106 107 119 124 109 131 134 145 155 151 137 77 58 57 34 320 67 83 122 143 136 134 129 139 145 145 144 142 141 141 142 141 134 131 142 146 144 138 141 138 137 144 144 150 140 130 121 116 113 108 112 110 108 108 119 114 112 110 109 108 109 107 107 101 105 105 103 105 107 105 108 102 97 97 95 91 82 79 80 80 72 69 67
151 177 232 280 354 31 213 144 79 45 27 342 138 112 113 138 132 125 120 122 133 148 151 156 147 150 115 36 10 80 96 136 143 147 153 124 142 143 142 146 145 138 136 139 136 137 138 137 144 144 139 139 137 133 133 129 130 131 119 114 108 104 95 108 116 121 117 128 122 115 111 111 110 110 111 109 109 112 111 108 105 105 101 99 102 98 98 95 91 88 88 75 64 61 69 70 68
138 186 156 196 183 235 58 118 106 53 69 289 29 116 135 137 131 123 127 118 113 128 162 150 122 123 118 116 95 50 1 112 151 133 163 133 139 143 145 143 132 123 124 127 132 135 135 138 143 145 144 144 138 134 135 132 131 124 123 118 109 108 118 110 111 114 117 123 119 116 112 113 112 111 110 110 110 110 109 108 108 102 97 99 99 98 95 91 88 84 85 86 89 80 75 69 68
81 297 8 327 47 228 93 99 93 309 81 353 21 109 130 134 141 133 145 145 157 162 167 141 149 89 61 296 92 48 54 74 98 114 125 137 140 143 145 135 129 126 130 131 137 139 136 145 150 150 147 147 138 140 136 133 121 110 114 114 115 112 115 112 108 104 118 122 119 116 115 116 117 113 111 110 111 109 112 111 104 102 102 103 101 97 93 89 85 83 79 80 82 80 72 66 59
226 290 137 263 141 110 124 99 91 15 79 59 85 66 121 124 165 144 145 130 128 132 152 157 153 209 91 89 72 60 71 101 107 116 131 134 142 143 140 138 135 136 137 142 139 147 149 145 148 149 145 148 145 140 125 99 104 123 123 120 122 120 109 104 108 116 115 115 119 112 116 115 117 116 113 112 110 109 112 112 107 107 109 105 103 96 89 84 80 79 75 70 68 64 60 57 53
228 311 54 336 265 136 122 103 94 33 69 62 104 119 135 148 127 100 136 143 150 141 105 91 120 104 123 89 105 93 104 117 116 123 131 137 138 144 139 136 134 139 141 141 142 150 141 143 147 148 145 145 142 107 97 104 111 111 123 127 124 115 113 119 126 114 100 81 59 86 87 111 114 114 113 111 108 109 107 111 115 113 108 101 94 90 84 80 73 69 67 62 59 55 49 46 42
327 142 7 222 149 140 148 125 93 133 96 105 89 50 76 105 128 119 116 118 124 134 125 124 101 121 110 89 71 90 122 126 127 132 138 139 141 142 138 129 131 140 141 141 144 149 149 149 146 148 151 128 96 100 110 120 117 114 122 120 113 108 115 114 116 104 99 118 127 126 118 107 113 113 114 111 108 106 111 109 110 105 101 98 89 85 80 77 73 67 63 58 54 50 43 38 34
349 350 239 109 125 142 130 124 116 106 86 124 103 59 352 135 132 133 140 138 130 126 130 229 140 130 99 120 115 126 128 131 123 131 138 138 139 139 135 134 135 135 137 139 146 144 131 129 120 102 101 100 113 121 133 129 135 136 134 116 106 118 120 121 116 112 110 116 122 130 111 102 113 113 111 110 110 111 106 107 103 104 101 92 87 82 78 74 68 62 59 55 51 46 40 33 28
356 335 62 116 114 137 127 127 123 122 127 81 90 44 178 152 169 138 120 105 119 126 122 32 134 177 114 119 118 129 138 131 131 136 137 139 136 136 134 132 135 133 137 138 138 130 127 114 112 128 116 120 135 139 140 138 142 138 124 103 133 127 134 133 126 121 116 111 84 88 85 89 89 116 114 117 115 109 115 113 109 102 93 89 85 82 78 70 63 58 54 49 46 40 37 31 25
349 5 326 119 269 126 144 116 105 152 142 66 102 117 83 113 110 137 131 114 120 106 87 126 121 102 104 121 140 150 138 142 136 136 135 132 131 130 130 128 133 135 139 141 130 126 120 113 127 116 118 121 121 139 144 151 138 135 115 112 123 133 149 153 137 130 106 112 113 114 103 95 305 120 118 118 118 117 116 109 104 98 93 87 81 77 72 65 59 54 49 46 43 39 35 30 25
6 263 333 106 125 137 144 144 150 155 138 170 129 148 122 47 107 123 128 123 83 103 111 99 108 189 169 170 157 159 146 149 140 136 131 126 123 123 124 129 133 140 135 130 124 129 129 129 123 123 105 125 129 123 130 127 121 102 117 130 147 159 159 140 143 132 116 120 118 118 117 131 170 15 119 121 119 119 112 108 101 95 89 81 76 72 67 61 56 50 46 44 43 37 36 30 16
5 291 341 139 145 171 175 139 180 171 143 168 117 127 91 83 78 122 58 2 113 127 153 130 271 13 136 179 145 144 144 145 141 138 129 127 128 127 129 134 141 128 114 111 124 129 126 123 122 124 120 117 124 121 112 107 111 110 140 141 151 160 149 142 143 138 119 120 118 121 122 126 139 161 170 121 120 115 106 100 98 92 85 79 74 70 65 59 54 46 43 41 35 35 31 17 8
224 266 158 85 155 211 162 177 174 179 106 129 137 166 138 127 62 55 116 126 123 120 87 71 62 266 146 126 136 139 142 143 142 138 132 132 139 138 137 139 143 140 132 133 151 132 126 123 124 121 116 118 114 109 103 89 107 128 137 135 153 156 146 148 142 136 131 133 124 123 134 133 167 161 194 122 123 110 106 104 98 91 85 81 79 75 67 60 50 43 40 34 29 21 9 333 2
279 3 11 112 40 215 170 200 164 37 145 150 167 187 136 131 137 116 121 97 98 107 94 92 81 88 108 123 134 137 142 147 147 145 143 140 149 147 151 149 158 154 148 155 151 150 148 140 141 132 118 111 112 109 100 101 101 112 124 135 145 146 140 141 132 130 133 139 123 128 139 143 164 168 123 159 127 116 111 105 100 91 86 84 80 68 64 57 47 33 25 19 9 0 344 347 353
318 65 333 75 180 52 327 222 148 125 128 147 150 165 160 140 141 163 144 140 131 111 108 105 96 104 116 128 136 143 148 149 153 149 146 147 154 154 154 153 161 153 157 139 152 171 172 158 151 148 122 119 118 110 99 96 98 94 99 116 112 125 125 125 131 128 132 134 124 120 125 138 166 141 148 147 112 106 106 107 99 94 86 74 65 58 50 47 33 19 15 4 342 322 334 355 341
107 299 49 58 352 338 350 314 176 172 135 156 168 144 148 138 154 160 159 149 158 141 134 124 129 135 141 142 146 149 152 154 154 150 148 153 160 159 156 163 161 169 165 175 170 172 183 165 153 153 140 135 133 113 106 101 101 112 109 110 130 138 130 126 141 135 137 131 125 132 149 149 160 143 138 112 97 104 93 89 84 81 72 59 42 68 51 40 10 12 0 336 333 358 358 352 355
103 249 359 52 16 288 55 335 271 158 162 162 152 130 141 163 138 172 139 135 181 174 164 152 150 147 150 152 152 154 157 159 160 159 159 162 162 161 161 163 169 165 170 166 166 167 185 166 157 147 140 127 129 117 118 115 127 125 123 132 149 156 135 140 138 138 144 137 137 136 145 155 141 140 138 117 99 89 86 82 76 63 49 48 11 45 33 20 10 4 359 357 4 353 2 4 358
184 335 44 332 325 288 18 351 349 129 159 149 140 155 158 122 152 164 161 168 188 188 173 154 151 153 154 156 157 159 162 162 164 168 168 168 166 163 161 160 151 155 156 176 168 162 168 161 162 143 133 121 128 130 122 124 126 125 136 137 147 150 140 133 132 140 146 145 143 141 143 143 142 127 115 110 101 98 91 70 60 54 53 51 13 32 27 15 4 3 359 360 356 356 1 4 6
270 131 241 14 304 278 351 343 57 161 158 165 163 124 115 168 149 172 175 352 41 122 151 151 149 152 150 150 155 161 164 166 169 173 173 173 167 164 164 166 163 167 170 161 163 159 157 164 153 139 127 125 132 130 129 133 130 130 138 136 147 147 139 134 135 140 145 136 138 141 150 141 125 125 122 116 107 97 80 65 62 50 44 42 20 14 16 9 1 359 359 357 346 351 6 11 2
250 280 91 25 15 32 339 342 17 155 162 154 99 139 152 140 152 156 181 61 106 138 140 142 143 145 149 153 163 163 166 169 175 177 177 175 167 162 160 166 166 163 167 155 161 161 161 149 140 139 135 137 130 133 130 129 125 139 131 142 150 142 135 136 144 145 135 132 140 146 142 130 137 137 130 123 106 99 70 66 62 51 50 34 10 13 10 3 0 2 358 351 354 355 2 13 16
222 231 104 97 26 42 28 35 49 85 91 113 147 161 121 74 104 157 177 115 141 136 137 139 142 145 151 155 161 164 166 169 170 170 177 176 167 154 156 162 165 165 162 162 158 160 157 136 150 144 138 143 132 134 129 127 131 131 140 143 140 147 138 140 143 142 140 144 142 145 143 140 144 142 135 119 109 80 70 55 54 57 38 25 4 26 11 359 2 6 7 358 5 0 4 16 2
216 145 125 93 50 97 62 52 39 48 98 109 143 140 102 79 77 159 141 148 145 138 141 143 146 150 156 163 164 167 170 172 171 170 177 178 173 170 167 166 165 170 161 159 157 157 154 144 152 150 151 142 138 132 124 133 133 134 144 138 135 147 141 135 145 149 140 144 145 146 145 146 142 135 125 103 105 98 83 68 65 46 39 19 9 19 11 1 7 3 6 4 8 2 5 13 350
152 138 127 124 122 71 50 333 356 10 17 333 205 167 148 36 208 161 148 156 149 142 146 150 153 157 159 163 169 172 174 176 176 166 169 172 178 184 175 170 171 166 161 161 158 160 152 152 155 154 145 144 140 134 135 133 133 134 139 133 143 143 138 142 147 141 141 143 140 148 149 148 141 135 122 123 115 98 82 43 42 27 40 29 7 15 15 6 4 7 6 0 3 352 352 2 350
130 127 117 112 113 70 46 81 9 322 250 221 261 145 90 23 287 103 109 164 156 148 152 157 159 160 163 164 171 176 181 179 172 176 182 181 181 181 176 175 172 167 169 163 159 162 158 157 156 151 149 148 147 137 138 134 132 137 138 138 135 134 145 142 140 142 143 140 145 151 150 144 130 107 110 125 98 81 69 52 61 35 34 19 10 11 8 6 360 359 359 347 338 326 338 355 352
138 146 144 147 164 99 28 8 110 257 259 174 180 89 179 241 195 79 91 169 165 155 156 161 162 162 164 165 170 181 183 178 184 192 196 192 179 172 171 169 165 165 169 160 157 165 156 155 157 157 151 153 152 145 141 135 132 137 140 134 138 147 147 148 146 146 144 143 146 150 142 134 137 138 137 145 125 89 67 33 71 39 26 12 14 6 7 357 3 360 10 348 348 340 349 4 355
164 206 249 186 227 278 39 26 200 247 218 163 181 193 183 204 189 95 48 170 166 154 160 163 163 164 165 169 175 181 184 185 199 205 195 185 177 171 168 164 163 162 160 161 159 164 151 157 165 161 157 157 156 147 142 140 137 138 139 136 143 152 148 148 145 140 143 145 148 148 144 142 142 152 165 148 280 88 72 38 23 32 19 7 12 7 9 7 6 4 2 348 355 348 355 4 358
240 95 225 296 281 32 24 343 5 282 125 168 351 222 155 171 176 134 346 173 166 168 165 167 166 166 169 173 176 183 187 198 206 207 195 181 175 171 169 162 165 159 156 161 166 160 157 159 166 164 166 155 161 152 155 141 142 141 140 140 146 157 148 149 142 142 149 147 152 148 161 163 170 180 205 230 287 329 9 39 17 27 12 354 19 26 350 6 4 1 5 350 348 351 352 3 1
115 220 196 112 294 47 34 8 208 325 151 166 299 252 173 160 148 147 11 177 174 170 169 170 171 172 172 174 180 185 193 202 213 215 203 184 177 172 170 166 168 165 164 160 159 162 160 162 168 167 162 163 166 159 159 147 144 142 138 139 145 155 150 147 147 148 146 150 160 154 177 192 190 197 208 233 282 301 344 10 33 7 356 6 21 18 348 4 1 354 4 347 348 352 347 353 360
162 289 325 347 353 356 314 87 290 313 170 184 257 359 74 151 159 144 54 184 181 173 172 174 175 177 177 178 179 190 193 199 210 213 204 190 182 177 170 168 168 169 165 163 161 165 162 161 169 167 164 166 166 165 159 151 147 147 146 149 146 156 155 152 149 150 149 153 162 158 172 200 200 195 217 228 267 264 317 349 41 15 359 15 8 3 357 1 354 353 352 0 341 324 336 345 355
264 235 300 22 341 347 332 311 219 119 181 179 219 274 1 359 147 140 158 174 186 179 176 176 176 179 182 183 182 187 195 195 207 210 204 194 183 178 173 168 166 167 164 170 168 167 165 162 166 166 161 166 168 163 165 159 154 150 148 144 152 161 162 158 152 158 162 158 173 175 183 202 196 202 220 227 264 306 328 340 359 11 11 13 8 352 352 359 351 344 344 356 343 321 340 345 346
344 299 244 194 219 275 311 298 114 161 195 216 201 241 289 44 139 160 174 169 193 188 179 176 177 179 183 186 187 190 197 202 208 205 199 189 183 176 173 167 166 165 167 172 171 164 163 164 162 166 164 167 163 163 165 161 152 155 143 149 153 160 164 164 160 170 171 176 177 173 187 200 185 211 227 211 238 271 297 333 343 25 5 10 358 351 6 7 355 349 341 346 329 333 339 345 343
335 327 317 317 303 317 303 280 169 208 180 218 235 233 262 148 183 169 186 166 192 188 178 179 175 180 188 191 189 191 198 209 208 199 192 185 183 176 170 168 165 165 165 169 172 169 163 163 163 165 169 167 163 164 168 164 159 157 153 151 154 164 167 168 181 183 179 186 176 185 185 200 202 217 211 193 223 257 288 323 16 4 17 354 5 11 19 9 357 346 352 339 337 335 260 327 341
344 302 277 290 296 269 293 275 119 212 216 216 235 237 242 196 187 310 258 44 182 184 180 183 187 184 190 196 193 196 203 210 196 187 185 184 178 173 171 167 166 164 163 168 174 177 173 170 165 167 169 169 169 168 171 168 166 163 162 167 162 165 173 173 184 187 190 189 180 188 187 196 194 204 184 195 205 209 244 326 14 344 2 353 355 17 15 357 353 334 330 314 333 344 6 334 20
296 299 296 294 265 300 359 288 165 157 263 224 225 238 241 187 189 258 194 210 208 200 188 188 194 195 195 198 198 199 207 204 174 168 181 178 178 175 174 172 168 167 170 171 180 180 179 175 173 167 167 172 176 174 172 173 173 172 169 169 161 161 167 182 179 189 190 179 183 193 194 190 189 190 183 198 200 210 205 191 202 30 356 348 351 350 338 336 339 348 345 330 297 350 9 352 9
270 290 315 302 254 80 116 105 167 138 252 291 233 235 228 202 193 192 192 199 185 224 226 211 201 201 202 202 203 203 196 192 187 188 180 184 180 177 178 178 174 173 171 175 179 179 178 178 177 167 170 173 178 175 172 177 176 175 179 163 171 156 171 178 169 169 181 183 181 185 184 184 183 188 195 192 207 213 211 209 208 123 333 342 324 341 343 347 354 0 349 360 339 161 358 33 6
256 257 267 284 117 215 251 148 177 145 312 293 201 233 242 211 202 221 226 204 203 219 249 240 220 217 211 206 205 202 199 192 192 186 185 182 180 179 180 180 175 172 172 177 180 181 180 182 178 172 170 175 174 176 179 176 173 165 178 166 167 172 168 152 148 148 170 183 182 178 182 182 193 199 195 204 202 208 213 215 204 145 145 41 297 331 336 346 359 0 356 8 344 331 53 46 24
220 238 252 243 157 221 288 127 162 86 76 52 173 254 259 227 222 224 220 221 254 240 253 246 238 237 230 216 214 206 200 194 196 191 185 179 180 184 186 182 174 178 181 182 182 182 184 184 179 177 173 174 173 173 176 165 160 162 156 136 163 145 140 167 175 174 179 183 190 189 187 187 193 210 196 198 211 199 208 212 209 199 145 229 329 298 328 350 357 3 358 347 15 358 22 29 51
271 232 229 222 210 223 128 124 153 197 233 205 231 285 248 208 216 223 161 184 232 222 231 237 231 226 220 218 217 208 208 200 195 192 185 183 186 183 180 181 181 184 189 187 187 184 182 181 177 175 173 175 175 175 173 170 177 174 168 173 181 187 184 185 191 186 182 188 198 188 185 194 196 202 193 195 197 195 199 204 211 228 212 184 289 327 336 323 338 340 21 349 13 26 351 339 81
246 258 200 202 202 183 136 152 191 219 253 120 218 252 282 152 222 216 190 211 230 220 226 237 225 220 221 213 212 208 202 197 200 198 189 188 185 179 181 186 188 189 191 184 185 185 184 178 177 177 177 177 175 173 172 177 181 184 187 191 193 195 193 196 200 195 190 189 200 197 203 200 206 210 195 191 188 190 203 209 213 233 250 253 291 298 289 315 9 2 353 359 5 1 347 12 13
235 46 188 161 159 165 161 164 217 327 61 105 267 237 272 285 231 211 188 206 229 224 228 232 225 215 220 215 211 209 203 196 193 195 191 190 185 184 186 190 192 193 184 182 184 184 183 180 177 179 176 177 178 172 173 180 185 186 190 196 195 202 207 201 198 206 205 204 205 213 212 215 208 217 215 185 198 196 204 210 214 232 243 254 276 293 319 328 343 350 4 349 342 357 353 4 3
8 52 149 144 154 144 147 163 170 14 259 253 183 179 258 251 169 163 187 200 224 230 225 224 224 214 213 213 212 212 207 196 191 191 193 190 188 191 189 190 194 185 182 185 186 184 180 178 177 179 179 177 176 177 175 179 186 184 191 197 196 203 212 207 191 196 202 201 213 210 220 221 211 214 221 219 201 209 212 216 206 229 236 233 251 251 288 330 310 333 300 318 341 353 350 348 336
115 109 97 96 93 94 116 159 161 141 241 253 200 188 239 271 232 170 190 211 218 224 219 218 213 203 201 205 212 211 206 197 196 193 190 192 192 192 191 188 184 187 187 183 182 179 178 174 178 179 182 181 175 180 181 179 182 181 190 195 200 200 199 198 192 190 197 194 210 212 214 220 220 214 215 223 226 224 229 222 221 219 231 231 259 327 323 304 284 270 292 316 339 335 353 323 335
139 115 106 101 94 92 76 54 278 290 249 252 180 185 205 291 224 196 166 211 211 216 211 213 211 203 201 202 201 203 203 198 194 195 192 193 194 191 184 184 186 183 182 180 180 181 181 179 178 182 184 181 176 179 182 182 184 186 193 194 200 203 195 193 192 199 197 200 217 220 220 222 222 226 226 217 228 232 229 232 235 216 223 200 239 250 274 296 297 251 280 305 276 315 333 336 311
154 135 130 115 78 77 55 39 315 235 245 82 199 185 199 235 261 195 211 221 222 217 203 200 204 205 197 194 197 201 201 197 195 192 193 190 185 185 184 185 180 181 180 181 184 180 182 183 180 181 182 182 181 182 183 186 187 188 193 192 199 202 193 193 200 202 200 207 214 219 223 228 227 226 228 233 228 227 224 233 232 227 222 226 229 232 271 303 300 302 298 305 269 269 298 312 323
218 146 171 160 67 71 236 200 232 226 257 86 156 171 203 238 255 314 249 238 235 219 223 209 203 203 193 180 182 185 193 195 191 190 188 184 178 175 182 181 177 179 184 186 188 185 182 182 183 184 184 183 185 184 185 187 189 191 192 193 198 195 195 198 200 204 197 205 210 215 213 225 228 230 230 234 227 223 227 233 232 230 231 232 242 246 250 274 290 293 303 278 285 276 275 295 295
186 182 159 148 118 103 265 241 292 266 120 86 197 177 249 274 282 280 276 263 241 236 231 221 206 204 196 178 173 182 186 191 193 189 188 185 181 183 183 179 179 184 188 187 189 188 183 184 186 191 190 184 182 187 187 188 193 192 191 193 195 191 198 201 204 209 205 205 204 215 221 222 224 232 233 230 237 228 228 231 234 239 241 243 241 243 247 256 266 269 263 274 262 287 272 272 283
199 153 195 212 159 153 197 213 229 254 88 116 159 175 236 242 101 1 350 314 289 247 225 218 211 202 200 182 168 176 181 186 186 188 190 185 181 180 180 181 184 188 189 187 188 188 184 185 185 191 191 188 187 188 188 190 191 193 191 194 194 196 203 203 209 212 208 206 213 216 215 222 227 228 232 238 232 235 241 241 236 243 240 239 241 245 243 235 241 233 248 263 278 246 267 272 271
182 181 52 189 204 95 200 252 256 166 149 141 178 239 227 226 71 42 19 5 357 305 237 212 207 195 180 175 175 178 184 183 185 189 189 185 181 180 179 181 184 187 188 188 188 185 186 189 189 193 194 191 192 190 191 192 193 191 190 192 194 197 199 204 202 200 207 212 209 214 211 213 226 224 226 230 230 228 236 241 239 240 241 245 244 247 250 246 223 229 233 234 251 237 260 256 261
150 196 212 204 113 192 130 166 325 174 212 235 179 262 239 247 215 50 11 4 14 3 297 212 207 197 184 182 179 181 183 178 181 189 187 183 181 183 184 184 187 187 187 187 186 185 187 186 188 192 195 194 197 196 194 193 192 191 192 194 196 197 203 207 209 206 209 207 210 210 216 220 218 220 227 224 231 220 231 242 249 252 242 244 251 248 251 245 235 233 229 226 246 252 261 277 283
146 210 206 75 142 352 275 194 249 248 248 233 203 262 295 338 286 4 358 350 354 355 343 249 213 195 183 177 170 166 168 175 181 184 183 181 181 181 184 188 189 188 189 189 188 186 186 186 188 190 191 194 198 199 199 195 192 195 194 196 197 201 207 212 214 211 204 197 199 207 215 209 215 219 221 227 222 223 222 226 242 248 255 258 259 262 251 248 240 244 237 241 253 261 260 264 268
314 351 98 241 229 201 110 214 220 234 249 254 235 290 282 358 328 355 346 341 336 338 338 293 211 192 182 158 160 180 183 179 182 187 185 184 184 184 184 188 192 190 190 189 188 186 187 189 191 193 197 198 197 200 201 200 196 196 198 199 198 200 206 211 212 209 206 206 208 204 210 213 215 207 207 211 222 228 222 221 225 243 242 245 249 254 248 248 243 251 248 252 244 242 253 257 258
85 236 90 26 218 222 222 88 336 275 232 228 229 296 358 30 359 326 321 325 331 331 330 321 234 196 182 171 183 191 192 192 180 179 180 185 188 187 185 186 189 189 189 193 190 188 194 193 190 195 200 198 197 200 199 201 200 201 199 195 195 196 200 206 204 204 210 213 212 210 210 209 212 209 214 212 222 230 227 228 229 234 244 248 251 253 248 243 242 249 257 262 263 251 257 255 259
27 43 29 45 52 268 354 211 265 332 285 238 330 280 82 26 353 320 310 320 329 331 321 314 256 207 189 178 190 194 183 176 172 177 187 190 189 188 189 189 189 188 187 188 190 190 194 193 196 195 195 197 197 199 197 199 199 203 199 196 197 196 203 205 209 207 214 214 214 214 214 218 208 214 213 214 215 223 227 231 241 244 247 249 248 256 254 249 241 240 240 248 260 259 257 257 252
49 37 46 339 329 159 218 204 125 127 249 210 202 288 60 26 355 324 311 325 343 339 331 318 253 199 192 177 187 205 190 177 172 179 188 191 193 194 191 185 183 182 182 186 191 189 191 195 197 197 198 200 200 201 202 198 198 200 203 202 204 198 201 203 208 208 211 214 214 212 212 210 215 214 213 216 215 219 221 228 237 240 243 246 244 240 251 249 246 240 242 240 238 240 247 251 256